SIMBA (47941 NORAD) Tracking and Keplerian Element Data

This shows tracking and keplerian element data for the satellite.

Feedback or suggestion? Click here.




ElementValue
Catalog47941
NameSIMBA
Epoch Orbit1371
Epoch Day172.84118622
Epoch Year2021
RAAN74.9194
Inclination97.558
Eccentricity0.0020438
Argument of Perigee299.3519
Mean Anonmoly125.6209
Mean Motion15.05680709
Decay Rate-1.48E-06
L11 47941U 21022K 21172.84118622 -.00000148 00000-0 -59366-5 0 9996
L22 47941 97.5580 74.9194 0020438 299.3519 125.6209 15.05680709 13718

Live tracking and technical data element details for SIMBA (NORAD 47941). SIMBA can be tracked NOW for your location showing map with azimuth and elevation plus other details from your city location.

Track the satellite on the map from your city or location and see movement details for azimuth, elevation, latitude, longitude, range, height, and movement on the map or in text.







IsCatalogInMostPopularTable: catalog: 47941, numindb: 41
Update: records affected: 1



GetName: 47941 SIMBA

Hit Count: updated at: Thu, 24 Jun 2021 04:00:08 GMT